[[{"header":{"parameterUnit":"m.s-1","parameterCategory":1,"la1":30.2992,"la2":30.254,"lo1":-89.0895,"lo2":-89.0443,"dy":0.0025,"dx":0.0025,"nx":19,"ny":19,"refTime":"2026-03-18T21:00:00:Z","depth":0,"parameterNumber":2,"parameterNumberName":"U-component_of_WINDS"},"data":[0,0,0,0.1925,0.1924,0.1839,0.1838,0.1747,0.1746,0,0,0,0,0,0,0,0,0,0,0,0.1963,0.1963,0.1925,0.1924,0.1839,0.1838,0.1747,0.1746,0,0,0,0,0,0,0,0,0,0,0,0.1963,0.1963,0.1963,0.1923,0.1839,0.1838,0.1747,0.1804,0,0,0,0,0,0,0,0,0,0,0.1884,0.1932,0.1963,0.1963,0.1923,0.1839,0.1838,0.1807,0.1801,0.1793,0,0.1792,0,0.1768,0.1741,0.1741,0,0,0,0.1913,0.1937,0.1903,0.1963,0.1922,0.1839,0.1874,0.1803,0.1797,0.1786,0.1791,0.1787,0.1767,0.1741,0.1741,0.1736,0.1737,0,0,0.1918,0.1954,0.1908,0.1899,0.1916,0.1877,0.1872,0.1799,0.1806,0.179,0.1784,0.1765,0.174,0.174,0.1736,0.1736,0,0,0,0.1938,0.1958,0.1925,0.1903,0.1887,0.1875,0.1869,0.1809,0.1796,0.1783,0.1764,0.174,0.1739,0.1735,0.1736,0.1794,0,0,0,0.1941,0.197,0.1928,0.1949,0.1889,0.1848,0.1881,0.1801,0.1791,0.1765,0.174,0.1739,0.1735,0.1736,0.1792,0.1815,0,0,0,0.1964,0.1972,0.1965,0.1951,0.1916,0.1848,0.183,0.1798,0.178,0.1741,0.1738,0.1734,0.1736,0.1789,0.1811,0.1824,0,0,0,0.1999,0.2017,0.1966,0.1979,0.1917,0.1886,0.183,0.1804,0.1778,0.174,0.1735,0.1736,0.1788,0.1809,0.1822,0.1841,0.1853,0,0,0.2042,0.2024,0.2028,0.198,0.1967,0.1896,0.189,0.1831,0.1793,0.1757,0.1756,0.1793,0.1811,0.1824,0.1909,0.1919,0,0,0,0.2053,0.2057,0.2046,0.2023,0.198,0.1943,0.1881,0.1859,0.1827,0.1783,0.18,0.181,0.1816,0.1823,0.1831,0.1833,0.1741,0.1741,0.1741,0.2165,0.2117,0.2121,0.2062,0.2041,0.1977,0.1954,0.1913,0.1869,0.1874,0.1863,0.1921,0.1931,0.1937,0.194,0.187,0.187,0.1871,0.1871,0.2222,0.2219,0.2162,0.2145,0.2094,0.2078,0.2016,0.1986,0.1962,0.1926,0.1928,0.1892,0.1949,0.1949,0.1875,0.1874,0.1873,0.1873,0.1873,0.2289,0.2279,0.2253,0.2215,0.2191,0.213,0.2111,0.2064,0.2019,0.2022,0.2004,0.2003,0.1995,0.2017,0.2017,0.2018,0.2018,0.2018,0.2018,0.2369,0.2337,0.2328,0.2283,0.2262,0.2228,0.2163,0.214,0.2102,0.207,0.2069,0.2025,0.1965,0.195,0.2021,0.202,0.202,0.202,0.2019,0.2443,0.2419,0.2404,0.2383,0.2326,0.2304,0.2245,0.2202,0.2176,0.2167,0.2122,0.2086,0.2063,0.2056,0.2043,0.2134,0.2134,0.2134,0.2134,0.2498,0.2483,0.2457,0.2426,0.2391,0.2336,0.2318,0.2267,0.221,0.2191,0.2171,0.2151,0.2146,0.2125,0.2117,0.2104,0.2208,0.2208,0.2208,0.254,0.2519,0.2514,0.2461,0.2412,0.2371,0.2352,0.2317,0.2247,0.221,0.2174,0.2171,0.2137,0.2129,0.2091,0.2078,0.2054,0,0]},{"header":{"parameterUnit":"m.s-1","parameterCategory":1,"la1":30.2992,"la2":30.254,"lo1":-89.0895,"lo2":-89.0443,"dy":0.0025,"dx":0.0025,"nx":19,"ny":19,"refTime":"2026-03-18T21:00:00:Z","depth":0,"parameterNumber":3,"parameterNumberName":"V-component_of_WINDS"},"data":[0,0,0,-1.6953,-1.6954,-1.7011,-1.7012,-1.7076,-1.7077,0,0,0,0,0,0,0,0,0,0,0,-1.6931,-1.6931,-1.6953,-1.6954,-1.7011,-1.7012,-1.7076,-1.7077,0,0,0,0,0,0,0,0,0,0,0,-1.6931,-1.6931,-1.6932,-1.6955,-1.7011,-1.7012,-1.7076,-1.7036,0,0,0,0,0,0,0,0,0,0,-1.6982,-1.6956,-1.6931,-1.6932,-1.6955,-1.7011,-1.7012,-1.7034,-1.7038,-1.7047,0,-1.7052,0,-1.7065,-1.708,-1.7081,0,0,0,-1.6958,-1.6953,-1.6973,-1.6932,-1.6955,-1.7011,-1.6987,-1.7037,-1.7041,-1.7052,-1.7053,-1.7056,-1.7067,-1.7081,-1.7081,-1.7115,-1.7115,0,0,-1.6955,-1.6938,-1.6969,-1.6976,-1.6966,-1.6985,-1.6988,-1.704,-1.704,-1.7054,-1.7058,-1.7068,-1.7081,-1.7081,-1.7115,-1.7115,0,0,0,-1.6943,-1.6936,-1.6955,-1.6973,-1.6984,-1.6986,-1.6991,-1.7038,-1.7045,-1.7058,-1.7068,-1.7081,-1.7082,-1.7115,-1.7115,-1.7098,0,0,0,-1.6942,-1.6929,-1.6954,-1.6944,-1.6983,-1.7011,-1.6987,-1.7042,-1.7048,-1.7068,-1.7081,-1.7083,-1.7115,-1.7115,-1.7098,-1.7092,0,0,0,-1.6929,-1.6928,-1.6934,-1.6943,-1.6967,-1.7011,-1.7022,-1.7043,-1.7054,-1.7081,-1.7083,-1.7115,-1.7115,-1.7099,-1.7093,-1.7096,0,0,0,-1.6911,-1.6918,-1.6934,-1.6946,-1.6966,-1.7,-1.7022,-1.7047,-1.7068,-1.7082,-1.7115,-1.7115,-1.7099,-1.7094,-1.7097,-1.7096,-1.7094,0,0,-1.6911,-1.6917,-1.6926,-1.6942,-1.6968,-1.6992,-1.7016,-1.7051,-1.7069,-1.7099,-1.71,-1.7098,-1.7093,-1.7096,-1.7089,-1.7088,0,0,0,-1.692,-1.6926,-1.6937,-1.6956,-1.6982,-1.7005,-1.7038,-1.7051,-1.7077,-1.7081,-1.7101,-1.7098,-1.7101,-1.7101,-1.71,-1.7103,-1.7115,-1.7115,-1.7115,-1.6896,-1.6918,-1.6934,-1.6963,-1.6981,-1.7015,-1.7032,-1.7055,-1.7073,-1.7077,-1.7086,-1.7079,-1.7079,-1.7078,-1.7081,-1.7088,-1.7087,-1.7087,-1.7087,-1.6897,-1.6909,-1.6932,-1.6955,-1.6979,-1.6999,-1.7032,-1.7043,-1.7065,-1.7074,-1.7077,-1.7085,-1.7075,-1.7079,-1.7086,-1.7086,-1.7087,-1.7087,-1.7087,-1.6884,-1.6893,-1.6909,-1.6939,-1.696,-1.6989,-1.7009,-1.703,-1.705,-1.7053,-1.7065,-1.7065,-1.7068,-1.7058,-1.7058,-1.7058,-1.7058,-1.7058,-1.7058,-1.6863,-1.6881,-1.6895,-1.6925,-1.694,-1.6962,-1.6997,-1.7012,-1.7035,-1.7049,-1.7049,-1.7066,-1.707,-1.7071,-1.7057,-1.7057,-1.7057,-1.7057,-1.7057,-1.6856,-1.6861,-1.6882,-1.6897,-1.6934,-1.6953,-1.6979,-1.7009,-1.7025,-1.7034,-1.7051,-1.7051,-1.7059,-1.706,-1.7061,-1.7046,-1.7046,-1.7046,-1.7046,-1.6844,-1.685,-1.6877,-1.69,-1.6925,-1.6951,-1.6975,-1.7002,-1.7031,-1.7042,-1.7048,-1.705,-1.7051,-1.7059,-1.706,-1.7061,-1.7046,-1.7046,-1.7046,-1.684,-1.685,-1.6866,-1.6894,-1.6924,-1.6949,-1.6973,-1.6998,-1.7032,-1.7047,-1.7052,-1.7052,-1.7056,-1.7056,-1.7071,-1.7072,-1.7074,0,0]}]]